Weather History for Malaga, Spain

Change the Weather History Date:

Sunday, December 1, 2013

  Actual Average Record
Temperature  
Mean Temperature 55 °F -  
Max Temperature 64 °F 60 °F 73 °F (1996)
Min Temperature 44 °F 46 °F 35 °F (1998)
Degree Days  
Heating Degree Days 10    
Growing Degree Days 5 (Base 50)    
Moisture  
Dew Point 28 °F    
Average Humidity 35    
Maximum Humidity 57    
Minimum Humidity 13    
Precipitation  
Precipitation 0.00 in 0.13 in - ()
Sea Level Pressure  
Sea Level Pressure 29.96 in    
Wind  
Wind Speed 12 mph ()    
Max Wind Speed 21 mph    
Max Gust Speed 32 mph    
Visibility 6.7 miles    
Events      
Averages and records for this station are not official NWS values.
T = Trace of Precipitation, MM = Missing Value Source: Averaged Metar Reports

Daily Weather History Graph

Daily Weather History Graph

Search for Another Location

Airport:

Trip Planner

Search our weather history database for the weather conditions in past years. The results will help you decide how hot, cold, wet, or windy it might be!

Date:

Astronomy

Dec. 01, 2013 Rise Set
Actual Time 8:11 AM CET 6:02 PM CET
Civil Twilight 7:43 AM CET 6:30 PM CET
Nautical Twilight 7:11 AM CET 7:02 PM CET
Astronomical Twilight 6:40 AM CET 7:33 PM CET
Moon 6:16 AM CET (12/1) 4:58 PM CET (12/1)
Length of Visible Light 10h 47m
Length of Day
9h 50m
Waning Crescent, 3% of the Moon is Illuminated
Dec 1
Waning Crescent
Dec 3
New
Dec 9
First Quarter
Dec 17
Full
Dec 25
Last Quarter

Hourly Weather History & Observations

Time (CET) Temp. Windchill Dew Point Humidity Pressure Visibility Wind Dir Wind Speed Gust Speed Precip Events Conditions
12:00 AM 52 °F - 28 °F 28% 29.95 in - WNW 15.0 mph - -  
12:00 AM 51.8 °F - 28.4 °F 41% 29.95 in - WNW 15.0 mph - N/A   Clear
12:30 AM 51.8 °F - 28.4 °F 41% 29.92 in - West 15.0 mph - N/A   Clear
1:00 AM 52 °F - 28 °F 28% 29.94 in 12 mi West 15.0 mph - -   Clear
1:00 AM 51.8 °F - 28.4 °F 41% 29.92 in - West 15.0 mph - N/A   Clear
1:30 AM 51.8 °F - 28.4 °F 41% 29.92 in - WNW 15.0 mph - N/A   Clear
2:00 AM 51 °F - 29 °F 30% 29.92 in - West 16.1 mph - -  
2:00 AM 50.0 °F - 30.2 °F 47% 29.92 in 6.2 mi West 15.0 mph - N/A   Partly Cloudy
2:30 AM 51.8 °F - 30.2 °F 44% 29.89 in 6.2 mi WNW 15.0 mph - N/A   Partly Cloudy
3:00 AM 52 °F - 25 °F 23% 29.90 in - West 13.8 mph - -  
3:00 AM 51.8 °F - 28.4 °F 41% 29.89 in - West 15.0 mph - N/A   Clear
3:30 AM 51.8 °F - 24.8 °F 35% 29.89 in - WNW 12.7 mph - N/A   Clear
4:00 AM 50.0 °F - 23.0 °F 35% 29.86 in - WNW 11.5 mph 23.0 mph N/A   Clear
4:30 AM 50.0 °F - 23.0 °F 35% 29.86 in - NW 15.0 mph - N/A   Clear
5:00 AM 50 °F - 21 °F 20% 29.88 in - NW 16.1 mph - -  
5:00 AM 50.0 °F - 23.0 °F 35% 29.86 in - NW 16.1 mph - N/A   Clear
5:30 AM 48.2 °F - 23.0 °F 37% 29.86 in - North 20.7 mph 32.2 mph N/A   Clear
6:00 AM 49 °F - 23 °F 23% 29.88 in - WNW 17.3 mph - -  
6:00 AM 46.4 °F 40.1 °F 24.8 °F 43% 29.86 in - WNW 15.0 mph - N/A   Clear
6:30 AM 46.4 °F 39.2 °F 24.8 °F 43% 29.86 in - WNW 18.4 mph - N/A   Clear
7:00 AM 48 °F - 23 °F 25% 29.91 in 12 mi West 18.4 mph - -   Clear
7:00 AM 46.4 °F 39.2 °F 23.0 °F 40% 29.89 in - West 18.4 mph - N/A   Clear
7:30 AM 46.4 °F 39.2 °F 23.0 °F 40% 29.89 in - West 18.4 mph 29.9 mph N/A   Clear
8:00 AM 48 °F - 22 °F 22% 29.94 in - West 16.1 mph - -  
8:00 AM 48.2 °F - 23.0 °F 37% 29.92 in 6.2 mi West 15.0 mph - N/A   Partly Cloudy
8:30 AM 48.2 °F - 21.2 °F 34% 29.95 in 6.2 mi West 17.3 mph - N/A   Partly Cloudy
9:00 AM 48 °F - 20 °F 21% 29.97 in - West 13.8 mph - -  
9:00 AM 48.2 °F - 21.2 °F 34% 29.95 in 6.2 mi West 12.7 mph - N/A   Partly Cloudy
9:30 AM 48.2 °F - 21.2 °F 34% 29.98 in 6.2 mi West 18.4 mph - N/A   Partly Cloudy
10:00 AM 50.0 °F - 21.2 °F 32% 29.98 in 6.2 mi West 17.3 mph - N/A   Partly Cloudy
10:30 AM 51.8 °F - 21.2 °F 30% 30.01 in 6.2 mi West 16.1 mph - N/A   Partly Cloudy
11:00 AM 54 °F - 22 °F 17% 30.01 in - West 17.3 mph - -  
11:00 AM 53.6 °F - 23.0 °F 30% 30.01 in 6.2 mi West 16.1 mph - N/A   Partly Cloudy
11:30 AM 53.6 °F - 23.0 °F 30% 30.01 in 6.2 mi West 16.1 mph - N/A   Partly Cloudy
12:00 PM 56 °F - 24 °F 17% 30.01 in - West 15.0 mph - -  
12:00 PM 55.4 °F - 24.8 °F 31% 30.01 in 6.2 mi West 15.0 mph - N/A   Partly Cloudy
12:30 PM 57.2 °F - 26.6 °F 31% 30.01 in 6.2 mi West 10.4 mph - N/A   Partly Cloudy
1:00 PM 61 °F - 25 °F 14% 30.00 in 25 mi WSW 9.2 mph - -   Scattered Clouds
1:00 PM 59.0 °F - 26.6 °F 29% 29.98 in 6.2 mi WSW 9.2 mph - N/A   Partly Cloudy
1:30 PM 60.8 °F - 26.6 °F 27% 29.98 in 6.2 mi WSW 4.6 mph - N/A   Partly Cloudy
2:00 PM 63 °F - 25 °F 13% 29.98 in - West 9.2 mph - -  
2:00 PM 60.8 °F - 26.6 °F 27% 29.98 in 6.2 mi West 8.1 mph - N/A   Partly Cloudy
2:30 PM 62.6 °F - 26.6 °F 26% 29.95 in 6.2 mi West 4.6 mph - N/A   Partly Cloudy
3:00 PM 63 °F - 35 °F 24% 29.97 in - WSW 4.6 mph - -  
3:00 PM 62.6 °F - 26.6 °F 26% 29.95 in - WSW 3.5 mph - N/A   Clear
3:30 PM 62.6 °F - 26.6 °F 26% 29.95 in 6.2 mi West 5.8 mph - N/A   Partly Cloudy
4:00 PM 60.8 °F - 39.2 °F 45% 29.95 in 6.2 mi South 9.2 mph - N/A   Partly Cloudy
4:30 PM 59.0 °F - 41.0 °F 51% 29.95 in 6.2 mi South 10.4 mph - N/A   Partly Cloudy
5:00 PM 60 °F - 40 °F 36% 29.97 in - South 9.2 mph - -  
5:00 PM 59.0 °F - 39.2 °F 48% 29.95 in 6.2 mi South 9.2 mph - N/A   Partly Cloudy
5:30 PM 57.2 °F - 39.2 °F 51% 29.98 in - South 8.1 mph - N/A   Clear
6:00 PM 57 °F - 40 °F 41% 29.99 in - South 5.8 mph - -  
6:00 PM 57.2 °F - 39.2 °F 51% 29.98 in - South 4.6 mph - N/A   Clear
6:30 PM 55.4 °F - 32.0 °F 41% 29.98 in - Variable 2.3 mph - N/A   Clear
7:00 PM 56 °F - 30 °F 25% 30.01 in 22 mi West 5.8 mph - -  
7:00 PM 55.4 °F - 32.0 °F 41% 30.01 in - West 5.8 mph - N/A   Clear
7:30 PM 55.4 °F - 30.2 °F 38% 30.01 in - West 9.2 mph - N/A   Clear
8:00 PM 55 °F - 29 °F 24% 30.03 in - West 8.1 mph - -  
8:00 PM 53.6 °F - 28.4 °F 38% 30.01 in - West 6.9 mph - N/A   Clear
8:30 PM 55.4 °F - 28.4 °F 36% 30.04 in - West 8.1 mph - N/A   Clear
9:00 PM 54 °F - 28 °F 24% 30.05 in - West 9.2 mph - -  
9:00 PM 53.6 °F - 28.4 °F 38% 30.04 in - West 8.1 mph - N/A   Clear
9:30 PM 53.6 °F - 28.4 °F 38% 30.04 in - West 9.2 mph - N/A   Clear
10:00 PM 46.4 °F 43.5 °F 30.2 °F 53% 30.04 in - NW 5.8 mph - N/A   Clear
10:30 PM 46.4 °F 44.3 °F 30.2 °F 53% 30.06 in - WNW 4.6 mph - N/A   Clear
11:00 PM 48 °F - 31 °F 40% 30.07 in - West 8.1 mph - -  
11:00 PM 46.4 °F 42.4 °F 32.0 °F 57% 30.06 in - West 8.1 mph - N/A   Clear
11:30 PM 44.6 °F 41.4 °F 30.2 °F 57% 30.06 in - NW 5.8 mph - N/A   Clear